This is the latest recevied weather packets stored in our database for station/object SP2WPY-13. If no packets are shown the sender has not sent any weather packets the latest 1 day(s).
| Time | Temp. | Humidity | Pressure | Rain* | Wind** | Luminosity | Snow |
|---|---|---|---|---|---|---|---|
| 1777941686 | 9.44° C | 100% | 1013.9 hPa | - | 2.24 m/s, 258° | - | - |
| 1777941367 | 9.44° C | 100% | 1014 hPa | - | 1.79 m/s, 265° | - | - |
| 1777941092 | 9.44° C | 100% | 1014 hPa | - | 2.68 m/s, 256° | - | - |
| 1777940774 | 9.44° C | 100% | 1014 hPa | - | 2.68 m/s, 261° | - | - |
| 1777940499 | 9.44° C | 100% | 1014 hPa | - | 2.68 m/s, 270° | - | - |
| 1777940179 | 9.44° C | 100% | 1014.1 hPa | - | 3.13 m/s, 256° | - | - |
| 1777939905 | 9.44° C | 100% | 1014.1 hPa | - | 2.68 m/s, 248° | - | - |
| 1777939585 | 9.44° C | 100% | 1014.2 hPa | - | 2.24 m/s, 251° | - | - |
| 1777939266 | 9.44° C | 100% | 1014.1 hPa | - | 2.68 m/s, 253° | - | - |
| 1777938991 | 9.44° C | 100% | 1014.1 hPa | - | 2.68 m/s, 251° | - | - |
| 1777938672 | 10° C | 100% | 1014.1 hPa | - | 2.24 m/s, 258° | - | - |
| 1777938399 | 10° C | 100% | 1014.1 hPa | - | 2.68 m/s, 263° | - | - |
| 1777938078 | 10° C | 100% | 1014.1 hPa | - | 2.24 m/s, 259° | - | - |
| 1777937806 | 10° C | 100% | 1014.1 hPa | - | 2.68 m/s, 261° | - | - |
| 1777937484 | 10° C | 100% | 1014.1 hPa | - | 3.13 m/s, 268° | - | - |
| 1777937165 | 10° C | 100% | 1014.2 hPa | - | 2.24 m/s, 268° | - | - |
| 1777936892 | 10° C | 100% | 1014.2 hPa | - | 2.68 m/s, 262° | - | - |
| 1777936572 | 10° C | 100% | 1014.2 hPa | - | 1.79 m/s, 263° | - | - |
| 1777936298 | 10° C | 100% | 1014.3 hPa | - | 2.24 m/s, 260° | - | - |
| 1777935979 | 10° C | 100% | 1014.3 hPa | - | 2.24 m/s, 240° | - | - |
| 1777935704 | 10.56° C | 100% | 1014.3 hPa | - | 2.68 m/s, 236° | - | - |
| 1777935385 | 10.56° C | 100% | 1014.3 hPa | - | 2.24 m/s, 264° | - | - |
| 1777935065 | 10.56° C | 100% | 1014.2 hPa | - | 3.58 m/s, 257° | - | - |
| 1777934791 | 10.56° C | 100% | 1014.3 hPa | - | 3.58 m/s, 263° | - | - |
| 1777934471 | 10.56° C | 100% | 1014.3 hPa | - | 3.58 m/s, 269° | - | - |
* Rain since midnight (hover to see other rain measurements)
** Current wind speed in m/s (hover to see current wind gust speed)